This is the latest recevied weather packets stored in our database for station/object F4MZI-13. If no packets are shown the sender has not sent any weather packets the latest 10 day(s).
| Time | Temp. | Humidity | Pressure | Rain* | Wind** | Luminosity | Snow |
|---|---|---|---|---|---|---|---|
| 1777601782 | 8.89° C | 52% | 1023 hPa | 0 mm | - | - | - |
| 1777601182 | 9.44° C | 52% | 1023 hPa | 0 mm | - | - | - |
| 1777600582 | 9.44° C | 52% | 1023 hPa | 0 mm | - | - | - |
| 1777599982 | 10° C | 52% | 1023 hPa | 0 mm | - | - | - |
| 1777599382 | 12.78° C | 49% | 1023 hPa | 0 mm | - | - | - |
| 1777598781 | 12.78° C | 49% | 1023 hPa | 0 mm | - | - | - |
| 1777598181 | 12.78° C | 49% | 1023 hPa | 0 mm | - | - | - |
| 1777597581 | 12.78° C | 49% | 1023 hPa | 0 mm | - | - | - |
| 1777596981 | 12.78° C | 51% | 1023 hPa | 0 mm | - | - | - |
| 1777596380 | 12.78° C | 50% | 1023 hPa | 0 mm | - | - | - |
| 1777595780 | 12.78° C | 45% | 1023 hPa | 0 mm | - | - | - |
| 1777595180 | 12.78° C | 45% | 1023 hPa | 0 mm | - | - | - |
| 1777594580 | 11.67° C | 41% | 1024 hPa | 0 mm | - | - | - |
| 1777593980 | 11.67° C | 41% | 1024 hPa | 0 mm | - | - | - |
| 1777593380 | 3.89° C | 37% | 1024 hPa | 0 mm | - | - | - |
| 1777592780 | 4.44° C | 37% | 1024 hPa | 0 mm | - | - | - |
| 1777592179 | 5° C | 37% | 1023 hPa | 0 mm | - | - | - |
| 1777591579 | 5° C | 37% | 1023 hPa | 0 mm | - | - | - |
| 1777590979 | 5.56° C | 37% | 1024 hPa | 0 mm | - | - | - |
| 1777589779 | 6.11° C | 37% | 1024 hPa | 0 mm | - | - | - |
| 1777589179 | 6.11° C | 37% | 1024 hPa | 0 mm | - | - | - |
| 1777588578 | 6.67° C | 37% | 1023 hPa | 0 mm | - | - | - |
| 1777587978 | 6.67° C | 37% | 1023 hPa | 0 mm | - | - | - |
| 1777587374 | 7.22° C | 37% | 1024 hPa | 0 mm | - | - | - |
| 1777586774 | 7.22° C | 37% | 1024 hPa | 0 mm | - | - | - |
* Rain latest hour (hover to see other rain measurements)
** Current wind speed in m/s (hover to see current wind gust speed)